Temperature
23 22 22 23 29 31 29 30 30 30 29 28 27 27 28 27 27 25 21 21 20 19 19 19 19 19 19 19 19 19 19 19 19 18 18 18 18 18 18 18 18 18 18 18 18 18 18 18 18
22 22 23 27 31 30 29 30 30 29 28 27 27 27 27 25 23 22 21 20 20 19 19 18 19 19 19 19 19 19 19 19 18 18 18 18 18 18 18 18 18 18 18 18 18 18 18 18 17
23 23 27 32 31 30 29 30 30 29 28 28 27 27 26 24 22 21 21 20 20 19 18 19 19 19 19 19 19 19 19 19 18 18 18 18 18 18 18 18 18 18 18 18 18 18 18 17 17
23 26 29 32 31 30 30 30 30 29 28 28 28 27 24 22 22 21 20 20 20 19 19 19 19 19 19 19 19 19 19 18 18 18 18 18 18 18 18 18 18 18 18 18 18 18 18 17 17
25 30 32 31 31 31 31 30 30 30 29 28 28 27 24 21 21 21 20 20 20 20 19 18 19 19 19 19 19 19 18 18 18 18 18 18 18 18 18 18 18 18 18 18 18 17 17 17 17
29 32 32 31 31 31 31 30 30 30 29 28 28 27 24 21 21 21 20 20 20 20 19 18 19 19 19 19 19 18 18 18 18 18 18 18 18 18 18 18 18 18 18 18 17 17 17 17 17
30 32 31 31 31 31 31 30 30 30 29 28 27 27 23 21 21 20 20 20 20 20 19 18 18 19 19 19 18 18 18 18 18 18 18 18 18 18 18 18 18 18 17 17 17 17 17 17 17
29 32 32 32 31 31 31 30 30 30 29 27 27 28 25 21 20 20 20 19 19 19 19 18 18 18 18 18 18 18 18 18 18 18 18 18 18 18 18 17 18 17 17 17 17 17 17 17 17
29 32 32 32 31 31 31 31 30 29 28 27 26 26 25 22 20 20 19 19 19 19 19 19 19 18 18 18 18 18 18 18 18 18 18 18 17 17 17 17 17 17 17 17 17 17 17 17 17
31 32 32 32 32 32 31 31 30 29 29 28 26 23 22 22 21 20 20 19 19 19 19 18 19 18 18 18 18 17 17 18 17 17 17 17 17 17 17 17 17 17 17 17 17 17 17 17 17
31 32 32 32 31 31 31 31 30 30 31 29 27 23 22 21 21 21 20 20 20 19 19 18 18 18 18 18 18 17 17 17 17 17 17 17 17 17 17 17 17 17 17 17 17 17 17 17 17
31 31 31 31 31 31 31 31 31 30 30 29 27 25 23 22 22 21 21 20 20 19 19 18 18 18 18 18 18 17 18 17 17 18 17 17 17 17 17 17 17 17 17 17 17 17 16 17 16
31 31 31 31 31 31 30 31 31 30 29 28 26 24 23 23 22 22 21 20 20 19 19 18 18 18 18 18 18 17 18 18 17 17 17 17 17 17 17 17 17 17 17 17 17 17 17 17 16
31 31 31 31 31 31 31 31 31 30 28 27 26 25 24 23 23 22 21 20 20 19 19 19 19 19 19 18 18 18 18 18 18 17 17 17 17 17 17 17 17 17 17 17 17 17 17 17 17
30 31 32 32 31 31 31 32 31 29 28 27 26 25 24 23 22 22 21 21 20 20 20 20 19 19 19 18 18 18 18 18 17 17 17 17 17 17 17 17 17 17 17 17 17 17 17 17 17
31 31 31 32 32 31 31 31 31 29 28 28 27 25 24 23 22 21 21 21 20 20 20 20 19 19 19 19 18 18 18 17 17 17 17 17 17 17 17 17 17 17 17 17 17 17 17 17 17
31 31 31 31 32 31 31 31 31 29 29 28 27 26 24 22 22 21 20 20 21 21 20 20 20 20 19 19 19 18 18 18 17 17 17 17 17 17 17 17 17 17 17 17 17 17 17 17 17
31 31 31 31 31 31 31 31 31 29 29 28 27 26 24 23 22 21 20 20 20 21 20 20 20 20 19 19 19 18 18 18 17 17 17 17 17 17 17 17 17 17 17 17 17 17 17 17 17
30 30 30 31 31 31 31 31 31 30 29 28 27 26 25 24 22 21 20 20 20 21 21 20 20 20 19 19 18 18 18 18 18 17 17 17 17 17 17 17 17 17 17 17 17 17 17 17 17
29 30 30 31 30 30 31 31 31 30 29 28 27 26 25 24 22 21 20 20 20 21 21 20 20 20 19 19 19 18 18 18 18 17 17 17 17 17 17 17 17 17 17 17 17 17 17 17 17
29 30 30 30 30 31 31 31 31 30 29 27 27 26 26 24 23 21 20 20 20 20 21 20 20 19 19 19 19 18 18 18 17 17 17 17 17 17 17 17 17 17 17 17 17 17 17 17 17
29 30 30 30 30 31 30 30 31 30 30 29 28 27 26 24 23 22 20 20 20 20 20 20 20 19 19 19 18 18 18 18 18 18 17 17 17 17 17 17 17 17 17 17 17 17 17 17 17
30 30 30 30 30 30 30 30 31 31 30 30 29 27 26 24 23 22 21 20 20 20 20 20 19 19 19 19 18 18 18 18 18 17 17 17 17 17 17 17 17 17 17 17 17 17 17 17 17
29 29 29 29 30 29 30 29 30 31 30 30 29 27 25 24 23 22 21 20 20 20 20 19 19 19 19 19 18 18 18 18 17 17 17 17 17 17 17 17 17 17 17 17 17 17 17 17 17
29 29 29 29 29 29 29 29 30 30 29 29 28 26 25 24 23 22 21 20 20 20 19 19 19 19 19 19 19 18 18 18 18 17 17 17 17 17 17 17 17 17 17 17 17 17 17 17 17
29 30 29 29 29 30 29 29 30 30 28 27 27 26 25 24 23 22 21 21 20 20 19 19 19 19 19 19 19 18 18 18 17 17 17 17 17 17 17 17 17 17 17 17 17 17 17 17 17
29 29 31 30 29 29 30 30 30 29 29 28 27 26 25 24 23 22 21 20 20 20 19 19 19 19 18 18 18 18 18 18 17 17 17 17 17 17 17 17 17 17 17 17 16 16 16 16 16
30 30 29 29 28 28 29 29 30 30 29 28 27 26 25 24 23 22 21 20 20 19 19 19 18 18 18 18 18 18 18 18 18 17 17 17 17 17 17 17 17 17 16 16 16 16 16 16 16
28 28 29 29 29 28 29 30 31 30 29 29 28 26 25 24 23 22 21 20 20 19 19 18 18 18 18 18 18 18 18 18 18 17 17 17 17 17 17 17 17 16 16 16 16 16 16 16 16
29 29 29 28 28 28 29 30 31 30 30 29 27 25 24 23 23 21 20 20 19 19 19 18 18 18 18 18 18 17 17 17 17 17 17 17 17 17 17 17 16 16 16 16 16 16 16 15 15
Wind_Speed
8 5 4 4 2 9 15 13 11 10 8 8 6 5 6 7 6 8 10 15 16 17 18 17 15 15 15 15 15 16 15 15 15 14 14 14 13 13 13 13 14 14 15 15 15 16 16 16 16
3 3 4 4 5 12 13 11 12 11 8 6 6 5 7 8 8 10 13 15 17 17 18 17 17 15 15 15 15 15 15 15 14 14 13 13 13 13 13 14 14 14 14 15 15 16 16 16 16
4 5 4 1 9 12 12 10 9 8 7 5 5 6 6 7 8 9 14 18 17 16 16 18 17 16 15 15 15 14 14 14 14 13 13 13 13 13 13 14 14 14 14 15 15 16 16 15 15
4 4 3 4 12 10 8 7 6 6 6 5 5 8 7 7 6 11 17 18 17 15 16 19 16 16 15 15 14 14 14 13 13 13 12 12 12 13 13 13 13 14 14 15 15 15 15 15 15
5 4 3 9 10 8 6 5 3 4 5 5 5 8 8 6 9 16 18 17 16 15 16 19 16 15 15 14 14 13 13 13 13 12 12 12 12 13 13 13 14 14 15 15 15 15 14 14 14
4 3 4 8 9 6 6 4 3 4 5 5 6 8 7 8 12 16 16 15 15 14 15 18 16 14 14 13 13 13 12 12 12 12 12 12 12 12 13 13 14 14 14 14 14 14 13 13 13
3 1 6 7 7 7 5 3 2 3 4 4 4 6 8 10 12 15 15 14 13 13 14 16 16 14 13 11 12 12 12 12 12 12 12 13 13 13 13 13 13 14 14 13 14 14 13 12 12
4 1 5 5 6 7 4 2 2 1 4 5 3 4 8 13 14 15 14 13 12 12 12 13 14 14 14 13 11 12 12 12 12 12 12 13 13 13 13 13 13 13 13 13 13 13 12 12 12
4 2 4 5 4 4 3 1 1 1 4 4 2 3 10 19 17 16 15 13 13 12 11 12 12 12 12 12 13 12 12 12 12 11 12 11 11 12 12 13 13 12 12 12 12 12 12 11 11
3 0 5 4 4 4 3 2 1 3 4 5 6 9 15 19 19 18 17 16 16 14 13 11 11 12 11 10 11 10 11 11 9 10 10 8 8 8 11 14 11 11 11 11 11 11 10 8 10
2 2 3 2 4 5 4 2 2 4 3 4 8 14 17 19 18 18 17 16 16 15 13 12 11 11 10 8 9 8 7 8 8 9 8 7 8 8 9 10 10 10 11 9 10 9 6 6 6
3 2 3 4 5 5 5 3 3 5 2 1 6 16 19 20 19 18 17 16 15 14 14 12 11 10 9 8 7 8 7 7 7 8 8 8 6 6 7 6 8 8 7 6 6 5 5 5 5
4 3 4 5 6 6 6 5 4 4 2 3 8 15 18 19 18 17 15 14 14 14 13 12 11 10 9 7 7 7 7 7 7 8 7 7 6 6 6 6 6 6 7 7 5 5 5 5 5
3 5 6 6 4 4 5 5 4 2 2 6 10 13 15 16 17 16 16 15 14 14 14 13 12 11 10 8 7 6 7 7 7 7 8 7 6 6 6 6 5 5 5 5 5 5 5 4 3
6 8 6 3 3 3 6 6 3 1 3 6 9 11 13 14 16 16 16 16 15 15 14 13 12 12 11 10 9 8 8 8 7 7 8 7 7 7 6 5 6 5 5 5 5 5 4 4 4
7 8 6 2 2 2 7 4 2 2 4 6 8 10 11 12 14 14 15 14 14 15 14 14 12 12 12 10 9 8 8 8 7 8 8 8 7 7 6 5 5 6 6 6 5 5 4 3 3
8 7 5 2 1 4 6 4 1 1 4 6 7 9 10 12 13 13 14 14 15 14 14 14 13 12 12 11 9 8 7 7 7 8 8 9 9 9 7 5 4 6 6 6 6 5 5 4 4
5 5 4 3 2 5 6 4 1 2 4 5 7 8 10 11 12 13 14 14 14 14 13 13 13 12 11 10 9 7 7 7 8 8 9 9 9 9 8 7 6 7 5 5 4 4 4 4 4
4 5 5 2 3 5 5 5 2 2 3 5 6 8 9 10 11 12 13 14 14 15 15 15 14 13 11 10 10 9 8 7 7 8 9 10 10 10 8 7 7 7 6 6 7 6 7 6 5
8 8 6 3 1 4 5 6 3 2 3 4 5 7 8 9 11 12 13 14 15 15 15 15 15 14 13 10 9 7 7 7 7 7 8 10 11 10 10 9 7 8 6 7 7 7 6 6 6
10 9 6 4 4 5 7 8 5 3 4 4 5 5 7 9 11 12 13 14 14 15 15 14 14 13 13 11 8 7 6 6 7 8 8 10 12 11 10 10 9 7 8 7 8 8 8 7 6
10 6 6 6 8 5 3 7 3 3 4 5 5 5 6 8 10 11 12 13 13 14 14 13 13 13 13 12 11 11 9 9 9 7 7 8 10 11 11 10 10 8 8 7 9 9 8 8 7
5 2 5 6 8 9 7 8 2 3 4 4 4 4 5 7 9 10 11 11 11 12 12 12 13 13 13 12 12 12 11 9 7 6 7 7 8 10 11 10 10 9 9 9 9 8 9 8 8
5 5 5 7 9 10 6 7 4 1 2 2 2 3 4 6 8 9 9 10 10 10 11 11 12 12 12 12 12 12 11 10 8 8 7 7 7 7 10 10 10 10 9 9 9 9 10 9 8
11 9 7 8 8 6 2 6 3 2 1 2 2 4 6 7 8 9 10 10 10 11 11 11 12 11 11 12 12 11 11 10 10 9 9 8 7 7 9 9 9 9 9 9 9 9 9 10 9
15 14 9 6 6 4 5 5 1 2 0 1 3 6 8 8 8 8 9 9 10 11 11 11 11 10 10 10 10 9 10 9 8 9 8 8 8 8 9 9 10 10 10 9 8 8 9 8 9
12 14 12 8 7 6 4 3 3 3 3 4 6 8 9 9 9 8 8 8 8 9 10 10 10 9 9 9 9 9 9 8 8 8 8 7 7 7 8 8 9 9 8 8 8 7 8 7 8
9 10 8 9 7 9 6 6 4 3 4 6 7 8 9 9 9 9 8 8 8 8 8 8 8 8 8 8 8 7 7 8 8 7 8 7 7 7 7 8 8 8 8 8 8 7 7 7 7
11 11 10 10 9 7 6 3 2 1 3 6 8 9 10 10 10 9 9 8 8 8 8 8 8 7 7 7 7 6 6 6 6 6 6 6 6 6 7 7 7 8 8 8 7 7 6 6 6
13 14 14 11 8 8 9 2 5 1 2 5 7 9 10 10 10 10 10 9 9 8 8 8 7 6 6 5 6 5 5 5 5 5 5 5 5 5 6 6 6 7 7 7 7 7 7 7 6
Wind_Direction
210 219 243 251 198 72 65 62 62 67 66 66 72 58 55 44 35 87 120 136 137 138 136 140 133 128 124 121 121 121 123 124 123 122 120 118 116 114 112 109 106 104 104 103 104 104 104 104 104
222 235 247 250 65 76 70 63 63 63 77 90 85 75 71 67 65 109 132 138 143 140 141 140 134 131 128 125 123 122 123 124 125 123 121 119 117 116 114 111 108 108 107 107 107 107 106 106 106
237 247 276 67 63 66 72 68 73 81 85 86 84 63 59 75 104 125 136 145 145 138 136 132 139 134 131 128 126 125 125 126 125 124 122 120 119 117 115 113 112 111 110 109 109 108 108 108 108
254 241 241 79 75 66 66 75 83 94 87 75 92 89 82 77 111 130 140 149 143 141 141 136 142 138 135 132 131 129 128 127 126 124 123 121 119 118 116 115 114 113 111 111 111 110 110 109 108
255 267 123 86 76 71 71 76 83 71 74 84 92 100 96 86 114 134 146 149 146 146 141 140 144 142 140 137 134 133 131 130 127 125 124 122 120 119 117 115 115 114 113 113 112 112 112 111 112
263 250 97 84 81 76 81 88 94 75 90 101 108 109 98 117 134 144 149 152 149 147 142 138 144 143 142 140 138 138 135 130 128 127 126 123 120 118 117 116 117 117 117 116 116 115 114 114 114
305 52 79 79 84 81 68 70 53 74 99 106 119 114 123 137 143 149 151 153 151 150 145 146 151 148 146 144 144 142 136 132 130 128 126 123 121 120 120 119 120 120 119 119 119 118 117 116 117
307 243 104 83 73 73 72 73 43 21 87 113 148 132 146 151 150 151 151 154 154 154 152 152 157 152 157 154 152 146 140 136 132 131 129 127 127 127 129 129 122 123 122 121 121 118 118 120 121
278 233 91 68 47 50 48 38 86 106 133 144 132 77 126 144 152 154 156 159 161 163 162 162 157 159 164 158 151 154 148 144 144 140 139 150 144 137 143 120 125 126 125 124 123 121 122 127 126
271 271 66 36 8 356 357 325 190 189 180 165 139 115 133 149 159 165 167 169 170 169 170 167 164 164 166 159 155 165 162 155 162 148 151 149 133 134 124 123 131 130 128 128 125 128 144 157 134
281 343 25 1 348 332 318 297 238 240 226 196 177 157 156 164 170 174 175 176 173 170 172 171 171 169 168 166 165 165 159 152 157 150 151 141 146 142 136 141 144 145 151 144 139 159 152 135 116
265 311 320 317 327 313 307 296 264 257 293 69 168 163 167 175 180 180 178 176 172 171 174 174 172 173 176 175 168 166 166 162 159 156 166 157 155 151 142 148 147 156 153 146 153 145 135 128 129
254 283 300 301 298 299 289 276 280 275 265 159 153 165 176 180 182 179 176 173 171 172 175 177 177 177 177 176 183 176 174 170 164 163 169 170 165 161 150 147 155 165 153 158 161 154 144 149 153
292 290 287 289 291 278 281 275 250 266 171 160 165 174 180 180 176 174 174 175 175 176 177 179 181 181 181 183 188 182 181 176 174 174 173 183 176 163 163 164 168 168 171 164 165 159 164 176 161
271 273 265 251 280 285 282 252 233 162 165 173 176 177 178 177 176 178 177 176 177 178 180 181 183 185 187 191 192 190 189 184 183 177 178 186 187 170 179 174 179 173 168 164 177 171 179 185 181
247 248 239 190 309 299 273 271 96 136 184 184 181 178 179 179 183 181 177 175 175 177 180 184 187 186 189 194 198 196 195 191 191 183 184 189 189 184 193 192 186 175 179 179 181 193 186 191 197
225 234 243 201 341 302 269 285 68 194 201 189 183 181 181 181 186 182 179 178 178 179 182 184 188 187 191 193 197 202 196 199 198 193 192 190 195 193 201 203 188 192 193 194 200 185 198 195 203
223 239 239 253 340 302 267 272 270 208 201 188 181 182 184 186 187 184 182 181 179 179 183 188 187 189 190 191 195 200 202 204 206 202 199 198 199 200 205 203 198 207 204 207 214 194 203 211 211
265 260 256 277 331 298 275 275 260 212 200 192 188 190 191 189 182 180 183 182 180 181 185 190 191 188 189 192 195 197 200 202 206 209 203 203 204 202 208 215 200 214 211 212 212 208 204 211 207
239 248 247 237 319 295 284 275 245 218 214 214 206 201 194 185 178 179 183 184 188 189 192 193 195 192 193 194 194 199 198 204 208 210 208 208 208 207 206 216 214 210 213 215 219 214 223 216 206
233 246 255 276 289 244 274 248 211 195 201 206 213 209 197 188 183 179 183 187 190 193 195 196 194 192 194 191 189 188 193 204 208 210 211 209 211 212 215 214 222 216 219 217 218 217 222 226 220
232 238 251 263 268 255 271 281 207 198 210 210 210 204 194 188 184 180 184 188 192 195 194 194 191 192 192 190 195 196 203 212 215 209 205 204 212 214 214 218 221 223 227 223 224 220 225 228 229
237 212 234 253 260 269 242 272 258 181 233 212 201 195 192 183 180 179 183 185 188 190 189 188 188 191 192 195 200 204 213 218 215 207 202 210 212 217 219 220 221 224 232 230 233 227 229 228 232
199 199 215 239 249 251 250 266 266 227 294 255 187 175 178 170 166 169 174 174 177 180 181 181 185 192 193 198 205 210 215 215 212 209 208 213 214 216 221 224 223 225 230 229 229 230 229 236 237
205 218 223 223 225 240 176 253 276 25 327 289 205 170 162 158 157 160 166 170 173 176 176 177 182 188 192 197 203 209 213 213 215 219 219 218 219 220 220 222 223 227 228 229 228 229 235 232 232
210 223 238 254 248 215 184 246 249 89 152 218 169 152 151 154 153 154 160 167 171 173 174 176 180 185 189 197 204 209 214 217 220 221 225 223 225 227 226 222 225 228 228 229 226 231 232 232 233
209 227 243 257 267 267 236 239 230 170 178 162 154 151 151 151 149 150 150 155 161 167 170 173 173 176 185 196 201 207 209 214 217 221 225 229 229 229 227 224 227 228 228 230 232 233 232 231 234
239 223 218 235 245 251 239 240 243 186 172 165 166 163 155 151 151 149 148 149 152 155 158 162 166 174 180 190 197 199 205 207 214 221 224 226 227 229 228 227 228 229 230 230 231 234 232 229 234
197 209 220 231 246 258 253 225 131 197 185 177 174 169 161 158 154 151 149 147 147 149 151 155 160 170 178 185 189 196 201 202 206 215 223 226 224 223 224 229 232 231 230 229 227 229 228 230 234
212 214 212 222 225 242 267 248 116 169 184 184 174 166 163 161 155 152 151 150 151 152 154 155 160 167 172 176 181 189 193 195 201 210 215 218 220 222 223 222 228 234 231 228 224 225 225 226 230
Height
1511 1510 1510 1511 1504 1502 1509 1507 1504 1506 1509 1513 1515 1515 1515 1517 1519 1531 1535 1536 1539 1542 1543 1544 1546 1548 1550 1551 1553 1554 1555 1556 1557 1558 1559 1560 1561 1562 1562 1563 1564 1565 1565 1566 1567 1568 1568 1569 1570
1513 1512 1513 1509 1500 1512 1516 1508 1509 1511 1515 1517 1518 1518 1518 1523 1528 1532 1535 1538 1541 1544 1545 1547 1548 1550 1552 1553 1555 1556 1557 1558 1559 1560 1561 1562 1563 1564 1565 1565 1566 1567 1568 1568 1569 1570 1571 1571 1572
1514 1513 1514 1502 1505 1512 1515 1510 1512 1514 1517 1517 1519 1521 1523 1528 1532 1534 1536 1539 1543 1546 1548 1547 1550 1552 1554 1555 1557 1558 1559 1560 1561 1562 1563 1564 1565 1566 1567 1568 1568 1569 1570 1571 1571 1572 1573 1574 1575
1516 1516 1511 1503 1510 1511 1510 1511 1513 1515 1517 1519 1520 1523 1528 1533 1534 1536 1538 1541 1545 1547 1549 1549 1551 1554 1555 1557 1558 1560 1561 1562 1563 1564 1565 1566 1567 1568 1569 1570 1570 1571 1572 1573 1574 1574 1575 1576 1577
1518 1513 1504 1507 1511 1510 1511 1513 1515 1514 1517 1520 1521 1524 1531 1535 1536 1538 1540 1544 1546 1549 1551 1551 1553 1555 1557 1558 1560 1561 1563 1564 1565 1566 1567 1568 1569 1570 1571 1572 1572 1573 1574 1575 1576 1577 1578 1579 1579
1517 1508 1507 1513 1513 1511 1511 1515 1516 1516 1519 1522 1523 1526 1533 1536 1537 1540 1543 1546 1548 1551 1553 1552 1554 1556 1558 1560 1562 1563 1564 1565 1566 1568 1569 1570 1571 1572 1573 1573 1574 1575 1576 1577 1578 1579 1580 1581 1582
1516 1506 1510 1511 1513 1512 1513 1515 1515 1516 1519 1523 1525 1526 1534 1537 1539 1541 1544 1547 1550 1552 1554 1554 1556 1557 1560 1562 1563 1564 1566 1567 1568 1569 1570 1571 1572 1573 1575 1576 1576 1577 1579 1580 1581 1582 1582 1583 1584
1517 1509 1509 1510 1513 1513 1514 1516 1518 1518 1520 1525 1526 1526 1532 1536 1538 1541 1545 1548 1550 1553 1555 1556 1559 1560 1562 1563 1564 1566 1567 1568 1570 1571 1572 1573 1574 1575 1576 1577 1578 1580 1581 1582 1583 1584 1585 1586 1586
1518 1510 1512 1512 1514 1513 1514 1515 1518 1520 1522 1524 1526 1528 1530 1534 1537 1541 1544 1547 1549 1552 1555 1558 1560 1561 1564 1566 1566 1567 1568 1570 1571 1572 1573 1575 1577 1578 1579 1579 1580 1582 1583 1584 1585 1586 1587 1588 1588
1516 1511 1513 1514 1514 1513 1514 1515 1517 1519 1520 1523 1527 1529 1530 1533 1536 1539 1542 1545 1548 1551 1554 1557 1560 1562 1564 1566 1567 1568 1571 1571 1573 1574 1575 1577 1578 1579 1580 1580 1582 1583 1584 1586 1587 1588 1589 1590 1591
1516 1513 1513 1515 1515 1515 1514 1515 1516 1516 1516 1519 1523 1527 1529 1532 1535 1538 1541 1544 1548 1551 1554 1556 1559 1562 1564 1566 1568 1570 1572 1572 1574 1575 1576 1577 1579 1580 1582 1582 1583 1585 1586 1588 1588 1590 1592 1593 1593
1517 1516 1517 1516 1516 1516 1515 1514 1515 1516 1517 1519 1522 1524 1526 1529 1532 1536 1540 1544 1547 1550 1553 1556 1558 1561 1563 1566 1568 1569 1572 1573 1574 1575 1576 1578 1580 1581 1583 1583 1585 1586 1588 1589 1591 1591 1592 1593 1594
1517 1516 1517 1516 1515 1515 1515 1513 1514 1515 1517 1519 1521 1523 1524 1526 1530 1535 1539 1543 1546 1549 1552 1555 1557 1559 1562 1564 1567 1569 1571 1573 1574 1575 1576 1578 1580 1582 1583 1584 1585 1587 1588 1589 1590 1592 1593 1594 1594
1517 1516 1515 1514 1513 1514 1513 1511 1513 1514 1517 1518 1520 1522 1523 1525 1529 1533 1537 1541 1544 1547 1550 1553 1555 1558 1561 1563 1566 1568 1571 1572 1575 1575 1577 1578 1581 1582 1583 1584 1585 1587 1588 1590 1591 1593 1593 1594 1595
1519 1515 1511 1511 1512 1512 1512 1509 1510 1513 1516 1518 1520 1522 1524 1526 1529 1532 1535 1538 1542 1546 1548 1551 1554 1557 1559 1562 1565 1567 1570 1572 1574 1575 1576 1577 1580 1581 1583 1584 1585 1587 1588 1589 1590 1592 1593 1594 1595
1515 1512 1512 1509 1511 1511 1512 1510 1509 1513 1514 1516 1519 1521 1524 1526 1529 1532 1535 1537 1541 1544 1547 1550 1553 1555 1558 1561 1563 1567 1569 1571 1573 1574 1575 1576 1579 1580 1582 1584 1585 1586 1588 1589 1590 1592 1593 1594 1595
1512 1513 1512 1510 1510 1509 1509 1508 1509 1512 1513 1515 1518 1520 1523 1526 1529 1531 1533 1536 1539 1543 1546 1549 1551 1554 1556 1559 1562 1565 1567 1569 1571 1573 1574 1576 1577 1579 1581 1583 1584 1585 1587 1588 1590 1591 1592 1593 1594
1515 1513 1514 1513 1509 1509 1507 1506 1507 1510 1512 1513 1516 1519 1522 1524 1527 1530 1532 1534 1537 1540 1544 1547 1549 1552 1554 1557 1560 1563 1565 1567 1569 1571 1572 1574 1576 1578 1580 1582 1583 1585 1586 1587 1589 1590 1590 1592 1593
1514 1515 1515 1512 1510 1509 1507 1506 1505 1508 1510 1512 1515 1517 1520 1523 1526 1528 1530 1532 1534 1537 1540 1543 1547 1549 1552 1554 1557 1560 1563 1565 1567 1569 1571 1572 1574 1576 1578 1580 1581 1583 1585 1586 1587 1588 1589 1590 1591
1516 1517 1514 1511 1510 1510 1508 1505 1504 1507 1509 1511 1513 1515 1518 1521 1524 1526 1527 1529 1532 1534 1537 1540 1543 1546 1549 1551 1554 1558 1560 1562 1565 1567 1568 1570 1572 1574 1576 1578 1580 1581 1583 1584 1585 1586 1588 1589 1590
1515 1515 1512 1513 1510 1507 1508 1505 1503 1504 1508 1510 1511 1513 1515 1518 1521 1523 1525 1527 1529 1532 1534 1537 1540 1543 1546 1549 1552 1555 1557 1559 1562 1563 1565 1567 1569 1572 1573 1575 1577 1579 1580 1582 1583 1584 1585 1587 1588
1515 1509 1512 1513 1514 1508 1511 1513 1501 1501 1503 1506 1508 1511 1513 1516 1519 1521 1522 1525 1527 1529 1532 1535 1537 1540 1543 1546 1549 1552 1554 1556 1559 1560 1562 1565 1567 1569 1571 1573 1574 1576 1578 1579 1580 1582 1583 1584 1586
1509 1510 1511 1512 1512 1513 1508 1513 1501 1498 1501 1501 1505 1509 1511 1514 1516 1518 1520 1522 1525 1528 1530 1532 1535 1537 1540 1543 1546 1549 1552 1554 1557 1559 1560 1562 1564 1566 1568 1569 1571 1572 1575 1576 1578 1579 1580 1582 1583
1510 1512 1512 1511 1508 1520 1510 1515 1507 1496 1499 1499 1503 1507 1510 1512 1515 1517 1519 1521 1523 1525 1528 1530 1533 1535 1538 1541 1544 1546 1549 1552 1554 1556 1558 1560 1562 1563 1565 1566 1568 1570 1571 1573 1574 1575 1577 1578 1579
1510 1515 1520 1521 1520 1516 1507 1512 1504 1496 1498 1500 1502 1506 1509 1511 1514 1515 1517 1519 1521 1523 1526 1528 1531 1533 1536 1539 1541 1544 1546 1549 1551 1553 1555 1557 1558 1560 1561 1563 1564 1566 1568 1569 1571 1572 1573 1574 1575
1506 1506 1518 1524 1519 1509 1511 1509 1498 1496 1499 1501 1502 1505 1509 1511 1513 1515 1516 1518 1520 1522 1524 1527 1529 1532 1535 1537 1539 1542 1544 1546 1548 1550 1552 1553 1555 1556 1558 1560 1561 1563 1564 1566 1567 1568 1569 1570 1571
1503 1503 1494 1505 1510 1514 1505 1501 1495 1495 1497 1500 1502 1505 1508 1511 1513 1515 1516 1518 1520 1522 1524 1526 1528 1530 1532 1535 1538 1540 1542 1543 1545 1547 1548 1550 1551 1553 1555 1556 1557 1559 1560 1561 1562 1563 1564 1566 1567
1496 1495 1502 1507 1521 1522 1511 1506 1499 1494 1495 1498 1501 1504 1508 1511 1513 1515 1517 1518 1520 1522 1523 1525 1528 1529 1531 1534 1536 1538 1539 1540 1542 1544 1545 1547 1548 1549 1551 1552 1553 1555 1556 1557 1558 1559 1560 1561 1562
1502 1502 1499 1500 1501 1513 1515 1505 1486 1490 1492 1496 1499 1503 1507 1510 1513 1515 1517 1518 1520 1522 1523 1525 1527 1529 1531 1533 1534 1536 1537 1538 1540 1541 1542 1543 1545 1546 1547 1548 1550 1551 1552 1553 1554 1555 1556 1557 1558
1490 1492 1497 1506 1509 1506 1506 1500 1485 1488 1491 1494 1498 1503 1506 1509 1512 1515 1517 1519 1520 1522 1524 1525 1527 1529 1530 1532 1533 1534 1536 1537 1538 1539 1540 1541 1541 1543 1544 1545 1546 1547 1548 1549 1550 1551 1552 1553 1554